Regional Weather Roundup
Issued by NWS Jackson, KY

Home | Current Version | Previous Version | Text Only | Print | Product List | Glossary On
Versions: 1 2 3 4 5 6 7 8 9 10 11 12 13 14 15 16 17 18 19 20 21 22 23 24 25 26 27 28 29 30 31 32 33 34 35 36 37 38 39 40 41 42 43 44 45 46 47 48 49 50
000
ASUS43 KJKL 170619
RWRJKL

EAST KENTUCKY HOURLY WEATHER ROUNDUP
NATIONAL WEATHER SERVICE JACKSON KY
200 AM EDT WED SEP 17 2014

NOTE: "FAIR" INDICATES FEW OR NO CLOUDS BELOW 12,000 FEET WITH
NO SIGNIFICANT WEATHER AND/OR OBSTRUCTIONS TO VISIBILITY.

* THESE REPORTS ARE NOT UNDER NWS QUALITY CONTROL AND MAY NOT
  REPORT WEATHER SUCH AS PRECIPITATION AND FOG.

KYZ079-080-083-085-087-088-110-112-115-119-120-170700
...EASTERN KENTUCKY...

CITY           SKY/WX    TMP DP  RH WIND       PRES   REMARKS
JACKSON        CLOUDY    57  55  93 CALM      30.08S
6HR MIN TEMP:  56; 6HR MAX TEMP:  59;

LONDON         CLOUDY    59  56  89 NE3       30.08S
6HR MIN TEMP:  58; 6HR MAX TEMP:  63;

MONTICELLO*    CLOUDY    57  57 100 CALM      30.09S FOG
6HR MIN TEMP:  53; 6HR MAX TEMP:  64;

MIDDLESBORO*   CLEAR     57  56  99 CALM      30.06F
6HR MIN TEMP:  57; 6HR MAX TEMP:  66;

HARLAN APT*    PTCLDY    55  55 100 MISG      30.07S
BLACK MTN*       N/A     50  50 100 VRB5        N/A
PIKEVILLE APT* FOG       55  55 100 NE3       30.08S VSB 0
BIG SANDY*     CLOUDY    56  56 100 N3        30.08S FOG
6HR MIN TEMP:  54; 6HR MAX TEMP:  60;

MOREHEAD APT*  FOG       50  50 100 CALM      30.11F VSB<1/4
ASHLAND*       CLEAR     52  46  82 CALM      30.08R
$$

KYZ035-036-041-042-044-050-067-078-099-170700
...CENTRAL KENTUCKY...

CITY           SKY/WX    TMP DP  RH WIND       PRES   REMARKS
MT STERLING*   CLEAR     46  46 100 NE3       30.11F FOG
FLEMING/MASON* CLEAR     48  48 100 CALM      30.11F FOG
DANVILLE*      CLEAR     50  50 100 CALM      30.10S
RICHMOND*      MOCLDY    54  50  87 CALM      30.09S
LEXINGTON      PTCLDY    52  49  89 CALM      30.10S FOG
6HR MIN TEMP:  52; 6HR MAX TEMP:  60;

FRANKFORT      MOCLDY    49  47  93 CALM      30.09S FOG
6HR MIN TEMP:  48; 6HR MAX TEMP:  59;

$$

KYZ091>093-OHZ055-061-077-WVZ005-015-034-035-042-170700
...SOUTHERN OHIO/WEST VIRGINIA...

CITY           SKY/WX    TMP DP  RH WIND       PRES   REMARKS
COVINGTON      CLEAR     53  49  86 CALM      30.09F
COLUMBUS       CLEAR     51  46  83 CALM      30.09S
DAYTON         CLEAR     50  46  86 CALM      30.10F
WILMINGTON     CLEAR     46  43  89 CALM      30.10S FOG
HUNTINGTON     CLEAR     51  50  96 CALM      30.08F
CHARLESTON     FOG       56  56 100 CALM      30.08S VSB 1/4
PINEVILLE*     MOCLDY    57  57 100 MISG      30.12F FOG
BECKLEY        CLOUDY    55  53  93 CALM      30.10R
BLUEFIELD      PTCLDY    56  52  86 SE3       30.10S
$$

VAZ002-007-008-TNZ017-027-036-066-071-170700
...SOUTHWEST VIRGINIA/EAST TENNESSEE...

CITY           SKY/WX    TMP DP  RH WIND       PRES   REMARKS
WISE*          CLOUDY    55  55 100 NE3       30.10S
JONESVILLE*    CLOUDY    55  55 100 CALM      30.08S
ABINGDON*      CLOUDY    62  58  88 E7        30.06F
BRISTOL        CLOUDY    63  57  81 CALM      30.04F
KNOXVILLE      CLOUDY    65  59  81 N5        30.02F
OAK RIDGE      CLEAR     60  58  92 CALM      30.05F
CROSSVILLE     FOG       59  55  87 CALM      30.07S VSB 1
NASHVILLE      PTCLDY    60  55  83 NW6       30.07S
$$

...KEY TO REMARKS...
VSB - VISIBILITY IN MILES
WCI - WIND CHILL INDEX
HX  - HEAT INDEX

$$



USA.gov is the U.S. government's official web portal to all federal, state and local government web resources and services.